[[{"header":{"parameterUnit":"m.s-1","parameterCategory":1,"la1":30.2991,"la2":30.254,"lo1":-89.0895,"lo2":-89.0444,"dy":0.0017,"dx":0.0017,"nx":28,"ny":28,"refTime":"2024-05-09T03:00:00:Z","depth":0,"parameterNumber":2,"parameterNumberName":"U-component_of_WINDS"},"data":[0,0,0,0,0,0,0,0,0,0,0,0,0,0,0,0,0,0,0,0,0,0,0,0,0,0,0,0,0,0,0,0,0,0,0,0,0,0,0,0,0,0,0,0,0,0,0,0,0,0,0,0,0,0,0,0,0,0,2.1379,2.138,0,2.1505,2.1506,2.1508,2.15,2.1498,2.1496,2.1494,2.1625,2.163,2.1635,0,0,0,0,0,0,0,0,0,0,0,0,0,2.1133,2.1137,2.1379,2.138,2.1382,2.1505,2.1506,2.1508,2.15,2.1498,2.1495,2.1493,2.1623,2.163,2.1636,0,0,0,0,0,0,0,0,0,0,0,0,0,2.1247,2.1139,2.1378,2.1393,2.1395,2.1504,2.1507,2.1509,2.15,2.1498,2.1495,2.1492,2.1621,2.1629,2.1637,2.1741,0,0,2.1661,2.1664,0,0,0,0,0,0,0,0,2.1241,2.1256,2.1389,2.1392,2.1395,2.1484,2.1468,2.1587,2.1501,2.1461,2.1494,2.1491,2.158,2.1591,2.1621,2.1747,2.1753,2.1661,2.1666,2.1669,2.1672,0,0,0,0,0,0,0,2.1233,2.1251,2.1429,2.1391,2.1394,2.1393,2.1406,2.149,2.1535,2.1464,2.1464,2.1478,2.1582,2.1614,2.1624,2.1755,2.1661,2.1668,2.1673,2.1676,2.1973,2.1976,0,0,0,0,0,0,2.1222,2.1244,2.1425,2.1432,2.1309,2.14,2.1415,2.1458,2.1534,2.1543,2.1481,2.1478,2.1602,2.1615,2.1629,2.1756,2.1669,2.1677,2.1681,2.1969,2.1973,2.1977,0,0,0,0,0,0,2.1216,2.1238,2.142,2.1338,2.1361,2.1407,2.1456,2.1462,2.1494,2.1546,2.1554,2.1505,2.16,2.1618,2.1713,2.176,2.168,2.1687,2.1966,2.1971,2.1975,2.2011,0,0,0,0,0,0,2.1209,2.1236,2.1275,2.1339,2.1366,2.1501,2.1459,2.1466,2.1507,2.1505,2.1572,2.158,2.1599,2.1701,2.1721,2.177,2.1694,2.1962,2.1968,2.1974,2.2005,2.2016,2.2025,0,0,0,0,0,2.12,2.128,2.1277,2.1299,2.1416,2.1504,2.1519,2.1539,2.1511,2.1552,2.1585,2.1578,2.1752,2.1711,2.1733,2.1785,2.1959,2.1966,2.1973,2.2001,2.2014,2.2025,0,0,0,0,0,0,2.1221,2.1289,2.1286,2.1389,2.1441,2.1502,2.1554,2.1552,2.1613,2.1607,2.163,2.1646,2.1741,2.1773,2.1726,2.189,2.1852,2.1864,2.1866,2.1878,2.1888,2.1878,2.17,0,0,0,0,0,2.1238,2.1303,2.1359,2.1444,2.147,2.1508,2.1547,2.1558,2.1612,2.1634,2.1675,2.1728,2.1795,2.1839,2.1903,2.201,2.2025,2.2057,2.2067,2.2074,2.2084,2.2144,2.2159,2.2,2.2,2.2,0,0,2.1272,2.1318,2.1357,2.145,2.1491,2.1558,2.1526,2.1599,2.1649,2.1645,2.1737,2.1769,2.1831,2.1932,2.1979,2.1962,2.2131,2.2084,2.2089,2.2095,2.2153,2.2168,2.2181,2.2005,2.2004,2.2004,0,0,2.137,2.1411,2.1486,2.1528,2.1591,2.1616,2.1634,2.1696,2.1717,2.181,2.1808,2.1869,2.1984,2.2028,2.2065,2.2181,2.2176,2.2201,2.2252,2.231,2.2322,2.2334,2.2375,2.2389,2.2211,2.2211,2.2211,0,2.1405,2.1506,2.1526,2.1599,2.164,2.1639,2.1717,2.1757,2.1838,2.1866,2.1845,2.1989,2.2031,2.2143,2.2171,2.2201,2.2223,2.2193,2.2319,2.233,2.2341,2.2381,2.2396,2.2214,2.2213,2.2213,2.2213,0,2.1547,2.1617,2.1671,2.1748,2.1795,2.187,2.1902,2.1948,2.1955,2.1982,2.2077,2.2127,2.2201,2.2229,2.2237,2.2343,2.233,2.2314,2.2276,2.2358,2.2396,2.2411,2.2217,2.2216,2.2216,2.2215,0,0,2.166,2.1748,2.1767,2.1803,2.1872,2.1927,2.2003,2.2075,2.2114,2.217,2.2234,2.2332,2.2318,2.236,2.2373,2.2424,2.2513,2.2402,2.2404,2.2421,2.2633,2.2644,2.2661,2.251,2.2513,2.2516,2.2627,0,2.1764,2.1897,2.1917,2.2035,2.21,2.2101,2.2167,2.2217,2.2245,2.2305,2.2336,2.2404,2.238,2.2406,2.2456,2.2491,2.2555,2.2483,2.2571,2.2573,2.2555,2.2681,2.2693,2.2796,2.2642,2.2645,2.2647,0,2.1903,2.1963,2.2087,2.2148,2.2176,2.2235,2.2304,2.2361,2.2418,2.2435,2.2483,2.249,2.2569,2.2528,2.2638,2.2589,2.2626,2.2648,2.2653,2.2661,2.2614,2.2692,2.2829,2.2844,2.267,2.2668,2.2666,0,2.1973,2.2085,2.2173,2.2204,2.2277,2.2319,2.2352,2.2406,2.2449,2.2509,2.2537,2.2606,2.2644,2.2698,2.2723,2.2691,2.2832,2.2793,2.2848,2.2847,2.2877,2.2875,2.3021,2.2902,2.2901,2.2901,2.2901,0,2.2088,2.2163,2.2205,2.226,2.2345,2.2368,2.2452,2.2484,2.2533,2.2594,2.26,2.2657,2.2688,2.275,2.2771,2.2859,2.2876,2.2892,2.2897,2.2891,2.2889,2.2916,2.2909,2.2905,2.2904,2.2903,2.2903,0,2.2179,2.2211,2.2307,2.237,2.2387,2.2447,2.2501,2.2554,2.2582,2.2659,2.2679,2.2722,2.2796,2.2827,2.2918,2.2932,2.3033,2.3032,2.3013,2.3014,2.3068,2.3062,2.3236,2.326,2.3125,2.3126,2.3127,0,2.225,2.2308,2.2377,2.2418,2.2452,2.2518,2.2562,2.2587,2.2633,2.2703,2.2748,2.2822,2.2882,2.3,2.304,2.311,2.3111,2.3167,2.3121,2.3114,2.3112,2.3108,2.3114,2.3175,2.3176,2.3177,2.3178,0,2.2372,2.2384,2.2447,2.2515,2.2567,2.2622,2.2676,2.2709,2.2743,2.2794,2.2869,2.2916,2.3009,2.3082,2.3154,2.3189,2.319,2.3193,2.3209,2.3204,2.319,2.3198,2.3035,2.3188,2.3187,2.3187,2.3186,2.3186,2.2455,2.2507,2.2563,2.2633,2.2676,2.2726,2.278,2.2814,2.2877,2.2954,2.2966,2.3046,2.3104,2.3201,2.3238,2.3302,2.3288,2.3312,2.3318,2.3323,2.3326,2.318,2.3315,2.3315,2.3315,2.3315,2.3315,0,2.2577,2.2613,2.2677,2.2752,2.2807,2.2803,2.2863,2.2909,2.2979,2.3033,2.3092,2.3179,2.325,2.3296,2.3369,2.3411,2.3413,2.3429,2.3426,2.3434,2.3335,2.3313,2.3426,2.3426,2.3426,2.3426,2.3426,2.3426,2.2646,2.2734,2.2754,2.2864,2.29,2.2979,2.3013,2.306,2.3102,2.3199,2.3258,2.3288,2.3338,2.3415,2.348,2.3492,2.3518,2.3535,2.3546,2.3452,2.3441,2.343,2.341,2.3541,2.3541,2.364,2.3641,2.3641]},{"header":{"parameterUnit":"m.s-1","parameterCategory":1,"la1":30.2991,"la2":30.254,"lo1":-89.0895,"lo2":-89.0444,"dy":0.0017,"dx":0.0017,"nx":28,"ny":28,"refTime":"2024-05-09T03:00:00:Z","depth":0,"parameterNumber":3,"parameterNumberName":"V-component_of_WINDS"},"data":[0,0,0,0,0,0,0,0,0,0,0,0,0,0,0,0,0,0,0,0,0,0,0,0,0,0,0,0,0,0,0,0,0,0,0,0,0,0,0,0,0,0,0,0,0,0,0,0,0,0,0,0,0,0,0,0,0,0,3.1496,3.1497,0,3.1633,3.1635,3.1636,3.1664,3.1663,3.1662,3.1661,3.1798,3.1802,3.1807,0,0,0,0,0,0,0,0,0,0,0,0,0,3.1254,3.1258,3.1496,3.1497,3.1499,3.1633,3.1635,3.1637,3.1664,3.1663,3.1661,3.166,3.1796,3.1802,3.1807,0,0,0,0,0,0,0,0,0,0,0,0,0,3.1371,3.1259,3.1495,3.1529,3.1533,3.1633,3.1635,3.1637,3.1664,3.1663,3.1661,3.166,3.1794,3.1801,3.1808,3.1882,0,0,3.1829,3.1832,0,0,0,0,0,0,0,0,3.1365,3.138,3.1522,3.1527,3.1532,3.163,3.16,3.1719,3.1665,3.1614,3.1661,3.1659,3.1743,3.1754,3.1783,3.1889,3.1895,3.183,3.1834,3.1837,3.1839,0,0,0,0,0,0,0,3.1357,3.1375,3.155,3.1524,3.153,3.1536,3.1551,3.1622,3.1686,3.1619,3.1621,3.1637,3.1745,3.1776,3.1786,3.1897,3.183,3.1836,3.184,3.1843,3.207,3.2072,0,0,0,0,0,0,3.1343,3.1368,3.1546,3.1554,3.1443,3.1542,3.1558,3.16,3.1685,3.1697,3.1638,3.1638,3.1765,3.1778,3.1791,3.1885,3.1837,3.1843,3.1847,3.2069,3.2071,3.2073,0,0,0,0,0,0,3.1338,3.1359,3.154,3.1462,3.1485,3.1548,3.1594,3.1603,3.1635,3.17,3.1711,3.1659,3.1765,3.1782,3.186,3.189,3.1847,3.1853,3.2066,3.2069,3.2072,3.2071,0,0,0,0,0,0,3.1331,3.1357,3.1386,3.1462,3.1489,3.1607,3.1596,3.1607,3.1647,3.1648,3.1722,3.1733,3.1765,3.1849,3.1867,3.1898,3.1858,3.2064,3.2068,3.2071,3.2069,3.2073,3.2078,0,0,0,0,0,3.1322,3.138,3.1388,3.1409,3.1528,3.1609,3.1624,3.1661,3.1649,3.1679,3.1721,3.173,3.1883,3.1857,3.1877,3.1911,3.2062,3.2067,3.2071,3.2067,3.2073,3.2077,0,0,0,0,0,0,3.1304,3.139,3.14,3.1484,3.1539,3.1613,3.1652,3.1666,3.1724,3.1722,3.1764,3.178,3.1856,3.1891,3.1861,3.1988,3.1972,3.198,3.1962,3.1968,3.1973,3.1963,3.1864,0,0,0,0,0,3.131,3.137,3.1441,3.1509,3.1536,3.1589,3.1626,3.165,3.1708,3.1731,3.1778,3.1833,3.1894,3.1933,3.1992,3.2074,3.209,3.2107,3.2111,3.2115,3.2121,3.2167,3.2176,3.2087,3.2087,3.2087,0,0,3.1323,3.1378,3.1413,3.1507,3.1552,3.1612,3.1609,3.1672,3.1717,3.174,3.1817,3.1854,3.1918,3.1998,3.2036,3.203,3.215,3.212,3.2122,3.2127,3.2172,3.2181,3.2188,3.209,3.2089,3.2089,0,0,3.1378,3.1425,3.1487,3.1532,3.1602,3.1637,3.1651,3.1724,3.175,3.1828,3.1847,3.19,3.2003,3.2048,3.2085,3.2156,3.2167,3.2174,3.2198,3.2242,3.2249,3.2255,3.2281,3.229,3.2181,3.2181,3.2181,0,3.1385,3.1477,3.1516,3.158,3.162,3.1645,3.1707,3.1749,3.1834,3.1861,3.1853,3.1984,3.2029,3.212,3.2137,3.2166,3.2184,3.2166,3.2245,3.2252,3.2258,3.2283,3.2293,3.2181,3.2181,3.2181,3.2181,0,3.1483,3.1546,3.1588,3.167,3.1715,3.1778,3.1825,3.1866,3.1885,3.1921,3.2,3.2055,3.2126,3.2149,3.2168,3.2243,3.2238,3.2237,3.2222,3.2267,3.2291,3.2301,3.2182,3.2182,3.2182,3.2182,0,0,3.153,3.1634,3.1648,3.1686,3.1764,3.1814,3.1877,3.1948,3.1982,3.2039,3.2093,3.218,3.218,3.2221,3.2245,3.2284,3.2338,3.2279,3.2281,3.2288,3.2424,3.2424,3.2435,3.2345,3.2347,3.2349,3.2419,0,3.1594,3.1709,3.1746,3.1842,3.1901,3.1925,3.198,3.2033,3.2068,3.2123,3.216,3.2222,3.2217,3.2242,3.2282,3.2323,3.2366,3.2318,3.2395,3.2397,3.2379,3.2448,3.2448,3.2512,3.2428,3.243,3.2431,0,3.1684,3.1745,3.1847,3.1918,3.1944,3.1993,3.2061,3.2113,3.2174,3.2196,3.2243,3.2264,3.233,3.2311,3.2402,3.2369,3.2402,3.2427,3.243,3.2439,3.2417,3.2459,3.2533,3.2542,3.2446,3.2445,3.2444,0,3.1709,3.1816,3.1891,3.1922,3.2007,3.2041,3.2078,3.2137,3.2177,3.2236,3.2263,3.2327,3.2363,3.2412,3.245,3.2433,3.2538,3.2522,3.2558,3.2557,3.2579,3.2578,3.266,3.26,3.26,3.26,3.2599,0,3.1777,3.1839,3.1903,3.1949,3.2019,3.206,3.2127,3.2165,3.2217,3.227,3.2294,3.2343,3.239,3.2445,3.2475,3.2546,3.2561,3.2581,3.2588,3.2579,3.2577,3.2602,3.2599,3.2602,3.2602,3.2601,3.2601,0,3.1817,3.1863,3.1946,3.202,3.204,3.2088,3.2151,3.2196,3.2231,3.2298,3.2316,3.2372,3.2438,3.2481,3.2564,3.2584,3.2662,3.2667,3.2642,3.2645,3.2679,3.2675,3.2781,3.2797,3.2725,3.2726,3.2727,0,3.1858,3.1906,3.1985,3.2023,3.2061,3.2121,3.2163,3.2205,3.2247,3.232,3.2356,3.2424,3.2481,3.2585,3.2632,3.2696,3.2703,3.2736,3.2713,3.2703,3.2704,3.2701,3.2706,3.274,3.274,3.2741,3.2741,0,3.1925,3.1946,3.2006,3.2074,3.2123,3.2178,3.2233,3.2262,3.2314,3.2359,3.2428,3.2472,3.2558,3.2625,3.2693,3.2729,3.2744,3.2748,3.276,3.2752,3.2735,3.2745,3.2652,3.2746,3.2745,3.2745,3.2745,3.2744,3.1967,3.2011,3.2074,3.214,3.2186,3.2237,3.2284,3.2326,3.2384,3.2459,3.2479,3.2551,3.261,3.2703,3.2741,3.2797,3.2793,3.281,3.2814,3.2818,3.2818,3.2726,3.2809,3.2809,3.2809,3.2809,3.2809,0,3.2036,3.2078,3.2139,3.2216,3.2267,3.2278,3.2339,3.2381,3.2444,3.2499,3.2554,3.2633,3.2698,3.275,3.2817,3.2852,3.286,3.2868,3.2866,3.2874,3.2818,3.2801,3.286,3.286,3.286,3.286,3.286,3.286,3.2078,3.2154,3.2182,3.228,3.2321,3.2393,3.2427,3.2474,3.2518,3.2605,3.266,3.2694,3.2747,3.2818,3.2878,3.2892,3.2915,3.2922,3.2937,3.2883,3.2878,3.2872,3.2857,3.2926,3.2926,3.2988,3.2989,3.2989]}]]